Location: Peterborough
(44.3091°N, 78.3197°W)
Time: 04:53:44
(UTC-04:00)

Vanguard 3 - All Passes

Search period start: 22 March 2023 00:00
Search period end: 01 April 2023 00:00
Orbit: 509 x 3249 km, 33.3° (Epoch: 21 March)

Date Brightness Start Highest point End Pass type
(mag) Time Alt. Az. Time Alt. Az. Time Alt. Az.
22 Mar - 01:45:50 10° SSE 01:53:59 14° SE 02:02:12 10° ESE visible
22 Mar - 03:50:44 10° SSW 04:07:18 36° SSE 04:22:03 10° E visible
22 Mar - 06:03:22 10° WSW 06:22:01 53° S 06:35:36 10° E visible
22 Mar - 08:19:23 10° W 08:36:20 52° SSW 08:46:58 10° ESE daylight
22 Mar - 10:36:58 10° W 10:48:30 30° SW 10:56:01 10° SSE daylight
23 Mar - 02:35:44 10° S 02:49:43 26° SE 03:03:33 10° E visible
23 Mar - 04:45:43 10° SW 05:03:56 47° SSE 05:19:04 10° E visible
23 Mar - 07:00:18 10° WSW 07:18:52 56° S 07:31:32 10° ESE daylight
23 Mar - 09:17:12 10° W 09:32:26 43° SSW 09:41:59 10° SE daylight
23 Mar - 11:36:22 10° W 11:43:19 17° SW 11:48:37 10° SSW daylight
24 Mar - 01:23:18 10° SSE 01:32:41 16° SE 01:42:29 10° ESE visible
24 Mar - 03:29:13 10° SSW 03:45:55 39° SSE 04:01:40 10° E visible
24 Mar - 05:41:52 10° WSW 06:00:50 55° S 06:15:28 10° E visible
24 Mar - 07:57:46 10° W 08:15:29 53° SSW 08:27:05 10° ESE daylight
24 Mar - 10:15:30 10° W 10:27:53 30° SW 10:36:07 10° SSE daylight
25 Mar - 02:14:10 10° SSW 02:28:17 29° SE 02:43:03 10° E visible
25 Mar - 04:24:20 10° SW 04:42:33 50° SSE 04:58:42 10° E visible
25 Mar - 06:38:47 10° WSW 06:57:46 57° S 07:11:28 10° ESE visible
25 Mar - 08:55:35 10° W 09:11:37 43° SSW 09:22:03 10° SE daylight
25 Mar - 11:15:11 10° W 11:22:40 17° SW 11:28:28 10° SSW daylight
26 Mar - 01:01:20 10° SSE 01:11:19 18° SE 01:22:13 10° E visible
26 Mar - 03:07:55 10° SSW 03:24:25 41° SSE 03:41:03 10° E visible
26 Mar - 05:20:29 10° WSW 05:39:31 57° S 05:55:10 10° E visible
26 Mar - 07:36:11 10° W 07:54:28 53° SSW 08:07:02 10° SE daylight
26 Mar - 09:53:58 10° W 10:07:05 30° SW 10:16:04 10° SSE daylight
27 Mar - 01:52:51 10° SSW 02:06:48 31° SE 02:22:16 10° E visible
27 Mar - 04:03:06 10° SW 04:21:04 52° SSE 04:38:07 10° E visible
27 Mar - 06:17:20 10° WSW 06:36:31 58° S 06:51:14 10° ESE visible
27 Mar - 08:33:58 10° W 08:50:37 42° SSW 09:01:57 10° SE daylight
27 Mar - 10:53:57 10° W 11:01:52 16° SW 11:08:06 10° SSW daylight
28 Mar - 00:39:44 10° S 00:49:54 20° SE 01:01:31 10° E visible
28 Mar - 02:46:48 10° SW 03:02:52 43° SSE 03:20:12 10° E visible
28 Mar - 04:59:14 10° WSW 05:18:03 58° S 05:34:40 10° ESE visible
28 Mar - 07:14:39 10° W 07:33:15 53° SSW 07:46:48 10° SE daylight
28 Mar - 09:32:24 10° W 09:46:06 29° SW 09:55:49 10° SSE daylight
29 Mar - 01:31:45 10° SSW 01:45:17 32° SE 02:01:13 10° E visible
29 Mar - 03:42:01 10° SW 03:59:30 54° SSE 04:17:19 10° E visible
29 Mar - 05:55:59 10° WSW 06:15:06 58° S 06:30:48 10° ESE visible
29 Mar - 08:12:22 10° W 08:29:26 42° SSW 08:41:40 10° SE daylight
29 Mar - 10:32:42 10° W 10:40:53 16° SW 10:47:28 10° SSW daylight
30 Mar - 00:18:27 10° S 00:28:30 21° SE 00:40:31 10° E visible
30 Mar - 02:25:51 10° SW 02:41:18 45° SSE 02:59:09 10° E visible
30 Mar - 04:38:05 10° WSW 04:56:30 59° S 05:13:58 10° ESE visible
30 Mar - 06:53:11 10° W 07:11:52 52° SSW 07:26:23 10° SE daylight
30 Mar - 09:10:50 10° W 09:24:55 28° SW 09:35:22 10° SSE daylight
31 Mar - 01:10:50 10° SSW 01:23:47 34° SE 01:39:57 10° E visible
31 Mar - 03:21:05 10° SW 03:37:54 55° SSE 03:56:21 10° E visible
31 Mar - 05:34:45 10° W 05:53:34 58° S 06:10:10 10° ESE visible
31 Mar - 07:50:50 10° W 08:08:05 41° SSW 08:21:10 10° SSE daylight
31 Mar - 10:11:31 10° W 10:19:44 15° SW 10:26:35 10° SSW daylight
